Vorticity
11 12 11 8 20 21 18 15 10 6 6 2 13 6 -5 16 19 9 11 6 6 6 2 18 -20 -4 27 11 -8 18 18 24 16 20 13 8 6 4 32 18 -23 32 -14 42 15 15 19 2 -6 10 17 8 1 4
11 13 7 21 11 11 7 6 4 4 4 2 3 12 42 5 25 10 8 12 11 11 4 25 6 4 7 -0 -9 5 -13 33 22 14 16 8 11 -0 7 13 35 22 -23 -5 25 8 10 38 9 12 5 16 11 10
13 7 22 9 10 8 8 15 19 24 27 24 19 5 33 27 -5 21 9 6 9 11 11 9 7 -1 13 9 4 6 -3 9 14 3 8 14 17 18 21 9 9 14 50 -18 2 16 34 0 34 33 20 12 13 7
9 20 11 7 15 9 2 13 16 16 23 20 27 42 27 21 14 21 10 6 9 -2 11 5 7 26 14 4 19 8 -5 0 -8 -21 4 14 22 22 8 9 2 7 4 35 19 1 22 9 7 31 15 27 20 13
20 10 13 7 16 11 17 20 4 10 12 15 30 33 21 23 14 19 10 11 7 1 4 43 31 12 9 21 12 -2 2 6 7 7 1 6 23 18 5 15 19 10 3 60 10 46 20 -2 4 6 -4 4 8 1
10 9 11 8 15 7 18 18 13 11 5 25 19 28 27 15 18 11 17 16 5 11 6 -9 12 11 32 24 14 7 11 12 9 16 -5 11 21 9 14 11 -11 20 10 11 29 1 -24 -6 4 8 6 5 6 7
8 11 13 21 12 -3 9 11 27 17 23 26 29 25 16 18 14 13 8 18 8 5 7 26 39 35 8 12 8 10 10 11 14 2 15 5 -14 18 12 9 6 12 6 1 12 -4 -8 -2 7 13 10 2 2 9
17 15 20 12 2 5 -8 31 14 18 25 26 18 17 19 15 10 10 3 16 25 8 8 7 -5 33 22 24 29 21 16 19 3 8 2 14 21 7 14 7 21 12 1 1 4 4 11 6 10 12 8 5 7 5
16 7 -10 14 38 11 22 22 15 31 21 16 17 13 9 11 13 22 -19 -11 12 11 5 -1 -19 -3 5 24 12 15 19 8 13 15 1 22 10 4 4 -8 -3 0 4 6 11 8 2 -0 6 14 15 13 9 6
32 27 16 24 14 9 29 22 28 19 13 11 10 7 4 8 2 2 14 4 -8 13 -4 5 8 1 14 6 1 1 26 14 23 18 17 18 9 5 -3 -3 -3 8 24 12 2 3 5 4 16 22 13 11 13 4
22 12 23 25 18 25 19 13 33 2 8 4 5 -7 10 16 10 4 18 4 3 17 28 22 13 -17 15 14 8 1 12 16 11 29 2 11 18 15 17 16 16 19 -5 2 9 17 16 7 13 15 16 13 10 12
31 20 35 50 21 26 16 14 18 8 7 -5 5 12 22 -8 1 11 12 10 13 7 6 26 28 13 2 18 7 26 7 13 8 23 2 12 8 6 13 5 4 15 15 12 10 12 11 13 10 12 12 14 16 19
35 31 21 33 24 14 6 26 21 8 18 -2 22 -20 15 5 10 11 16 16 8 15 11 8 15 15 30 1 4 18 11 8 15 8 10 9 17 11 7 10 7 7 10 13 15 16 12 15 18 19 20 21 22 21
14 5 18 14 15 9 38 22 21 5 11 -4 -21 9 -3 3 27 21 14 18 -9 12 9 17 10 3 1 6 6 11 12 9 9 8 4 4 9 8 11 16 18 20 19 19 19 21 22 19 18 18 20 19 18 17
16 9 7 22 17 32 17 -0 4 22 0 -2 3 11 14 19 18 17 6 22 12 9 28 13 14 -2 25 -4 18 11 11 11 11 9 3 13 11 11 19 22 19 18 19 17 16 17 17 17 18 15 12 8 5 3
-1 29 13 6 1 9 30 -3 17 11 -22 -3 17 21 15 18 6 13 10 12 7 10 28 5 19 15 19 5 14 8 8 12 7 8 12 12 16 19 18 19 17 15 15 18 18 15 11 8 5 4 3 4 4 6
5 10 14 12 10 15 40 12 5 -0 4 8 13 14 9 15 17 12 16 13 10 16 -6 -5 12 14 16 11 13 11 4 2 7 10 19 19 15 17 17 16 17 16 13 10 7 6 4 4 4 5 5 4 5 6
10 15 28 7 5 29 -21 7 -2 -5 9 5 18 7 6 15 17 15 16 13 11 7 1 -4 14 5 8 6 14 8 10 11 14 17 17 20 20 19 16 13 10 7 6 5 5 4 4 4 5 6 6 6 7 8
-4 -0 14 31 2 4 -9 12 -1 13 20 16 18 19 21 18 20 16 14 11 8 7 6 0 6 15 6 7 12 12 14 19 18 18 19 18 14 10 8 7 6 5 5 4 4 4 4 6 6 7 8 9 10 12
18 17 12 9 14 8 3 22 14 -3 21 18 15 14 13 12 12 11 11 12 10 9 5 0 3 5 6 14 18 18 20 24 23 20 15 11 8 7 6 5 5 4 5 4 5 6 7 8 9 9 9 9 10 10
10 9 11 12 15 9 6 18 8 28 20 5 12 9 12 10 12 12 12 17 14 10 12 8 11 12 18 21 24 23 18 10 7 7 6 6 6 6 6 5 5 5 6 7 7 8 10 10 9 12 12 13 14 13
14 12 11 9 7 11 15 17 14 13 12 13 10 9 11 11 10 9 12 10 10 13 14 19 20 23 25 19 11 8 6 5 6 6 7 5 6 5 6 7 7 8 9 9 10 11 10 10 12 12 13 14 15 15
11 11 11 6 9 10 20 16 20 14 21 15 9 7 12 9 12 12 13 21 23 18 20 21 19 11 7 5 4 4 6 6 6 6 6 7 7 7 8 10 10 10 10 10 11 11 13 14 15 16 15 16 16 15
9 6 4 14 12 27 12 17 21 17 32 4 10 18 11 12 11 10 29 20 18 18 15 10 6 4 4 5 5 6 5 7 7 6 7 9 9 11 10 10 10 12 13 13 15 16 16 16 17 16 15 16 14 14
2 8 12 10 12 24 13 12 10 22 18 16 2 18 11 4 12 16 16 17 13 8 6 4 4 4 5 5 5 7 6 7 8 10 10 10 10 12 13 12 13 13 14 15 15 16 15 16 16 15 15 13 11 11
8 8 9 23 14 -1 19 10 26 31 14 -5 23 14 16 7 2 32 20 11 7 5 4 5 5 6 8 7 7 7 7 10 11 11 10 11 11 11 10 13 15 13 14 14 14 14 15 12 11 11 12 13 14 13
5 13 15 12 10 20 8 19 -4 -1 9 21 34 -3 -15 12 14 40 6 4 2 6 7 6 8 8 7 8 8 8 11 12 11 11 11 11 12 12 12 12 12 13 15 15 14 13 12 12 12 11 12 13 14 13
14 17 21 11 30 5 11 -2 2 -1 19 25 -19 -2 1 14 33 17 11 6 6 5 6 6 6 6 7 9 10 11 11 10 11 11 12 14 10 11 11 12 13 14 14 14 13 12 12 12 11 12 13 13 12 12
15 18 20 16 21 14 -0 -4 7 13 30 -2 -4 7 14 12 40 19 9 6 6 6 7 7 7 8 9 10 11 10 11 11 12 12 13 11 10 11 12 14 13 13 14 13 13 13 13 12 12 12 12 12 12 11
29 24 14 19 18 3 2 0 11 20 20 -6 3 17 18 32 13 8 8 8 8 7 7 8 8 10 10 11 9 12 12 13 13 11 10 10 11 11 11 12 13 13 13 13 13 12 12 12 13 12 12 11 11 11
20 13 20 15 9 13 4 7 25 25 -4 8 22 22 27 21 16 11 9 5 7 9 9 10 10 8 10 12 12 13 13 12 10 9 10 10 12 13 14 13 13 13 13 13 13 13 12 12 12 12 12 13 13 14
13 13 16 15 12 7 7 17 4 13 21 17 11 10 8 8 6 13 6 8 8 11 9 6 8 10 12 13 14 13 11 9 10 10 12 13 13 13 13 13 13 12 12 12 12 12 12 13 14 13 13 12 12 12
12 11 15 15 12 14 16 14 14 14 9 11 12 11 7 5 13 4 5 9 9 6 8 8 10 12 13 14 12 10 10 10 12 12 12 12 13 13 12 12 12 12 12 13 14 13 12 11 11 12 12 13 13 13
Height
2909 2909 2909 2908 2908 2908 2909 2910 2911 2913 2915 2917 2919 2922 2925 2928 2931 2936 2940 2945 2948 2949 2951 2955 2959 2958 2962 2964 2963 2965 2969 2968 2970 2972 2975 2976 2977 2977 2974 2974 2972 2972 2978 2979 2985 2985 2983 2983 2982 2984 2983 2983 2984 2985
2899 2900 2900 2900 2901 2901 2902 2903 2905 2906 2907 2908 2910 2912 2916 2921 2925 2930 2934 2940 2945 2946 2948 2950 2953 2955 2960 2963 2962 2962 2964 2964 2967 2970 2972 2973 2973 2972 2971 2970 2968 2971 2971 2975 2976 2976 2977 2976 2978 2979 2980 2981 2982 2984
2891 2892 2892 2893 2894 2894 2894 2895 2896 2896 2896 2898 2900 2903 2907 2912 2918 2924 2930 2937 2941 2943 2944 2946 2949 2957 2956 2959 2960 2960 2963 2963 2966 2968 2968 2969 2969 2969 2968 2969 2968 2968 2967 2968 2974 2974 2974 2973 2972 2971 2975 2976 2980 2982
2883 2883 2885 2886 2886 2886 2887 2888 2888 2888 2889 2889 2891 2893 2899 2905 2913 2919 2926 2933 2938 2942 2942 2945 2947 2948 2951 2952 2955 2958 2961 2963 2963 2965 2966 2966 2965 2966 2966 2967 2967 2966 2965 2966 2970 2967 2968 2971 2972 2969 2970 2974 2977 2979
2874 2876 2878 2879 2879 2880 2880 2881 2882 2883 2883 2884 2885 2889 2895 2902 2909 2917 2925 2930 2936 2941 2940 2940 2942 2945 2946 2948 2952 2956 2958 2961 2963 2964 2965 2964 2962 2962 2963 2965 2965 2963 2961 2958 2964 2961 2962 2967 2969 2971 2971 2973 2975 2976
2867 2869 2871 2872 2873 2874 2874 2875 2876 2878 2879 2879 2882 2886 2892 2899 2908 2915 2921 2927 2931 2936 2939 2938 2940 2941 2942 2944 2948 2952 2956 2958 2959 2961 2962 2963 2962 2962 2963 2964 2964 2963 2963 2961 2960 2963 2961 2964 2968 2969 2969 2972 2972 2972
2861 2862 2863 2864 2866 2868 2869 2870 2871 2874 2875 2877 2880 2886 2893 2900 2907 2914 2922 2926 2931 2935 2939 2940 2936 2936 2939 2941 2945 2949 2951 2953 2957 2958 2959 2960 2962 2960 2960 2961 2961 2964 2965 2964 2963 2963 2963 2965 2968 2969 2966 2966 2967 2967
2853 2855 2856 2858 2860 2863 2864 2866 2869 2871 2874 2878 2883 2889 2896 2903 2911 2916 2923 2927 2930 2934 2938 2938 2935 2933 2935 2937 2941 2944 2947 2951 2953 2955 2957 2958 2959 2958 2957 2957 2960 2960 2962 2963 2961 2961 2962 2963 2964 2963 2961 2961 2960 2960
2848 2849 2851 2852 2853 2857 2860 2864 2867 2870 2875 2879 2885 2892 2898 2903 2909 2917 2923 2927 2931 2936 2934 2934 2932 2932 2935 2937 2938 2942 2945 2949 2951 2952 2954 2957 2956 2956 2957 2958 2958 2959 2960 2960 2960 2960 2958 2956 2957 2958 2956 2955 2955 2954
2841 2841 2842 2844 2847 2852 2856 2862 2867 2871 2876 2881 2888 2894 2899 2905 2914 2920 2924 2926 2929 2930 2930 2930 2933 2934 2936 2937 2939 2941 2943 2946 2947 2950 2951 2952 2952 2953 2954 2955 2955 2956 2956 2956 2957 2957 2956 2953 2953 2951 2950 2949 2949 2948
2835 2835 2835 2837 2842 2848 2854 2861 2866 2872 2878 2885 2892 2899 2902 2909 2915 2920 2922 2925 2927 2927 2926 2927 2931 2934 2936 2938 2939 2942 2943 2944 2945 2947 2948 2948 2948 2948 2949 2950 2950 2951 2951 2951 2952 2951 2950 2949 2948 2946 2945 2944 2943 2942
2830 2830 2829 2831 2839 2847 2854 2861 2866 2874 2879 2888 2893 2898 2904 2911 2915 2918 2921 2924 2923 2925 2925 2926 2929 2932 2935 2936 2939 2940 2941 2943 2943 2944 2945 2944 2943 2943 2943 2944 2945 2946 2946 2946 2946 2945 2944 2944 2942 2941 2940 2938 2938 2937
2831 2832 2834 2837 2844 2851 2858 2864 2871 2879 2886 2893 2898 2903 2906 2910 2912 2914 2915 2918 2920 2921 2923 2925 2928 2931 2934 2937 2938 2939 2939 2941 2942 2942 2941 2938 2939 2940 2941 2941 2941 2941 2941 2941 2940 2940 2939 2938 2938 2937 2936 2935 2935 2934
2839 2841 2843 2847 2852 2857 2862 2869 2877 2883 2890 2895 2899 2903 2906 2908 2908 2909 2910 2913 2918 2921 2922 2925 2928 2931 2933 2935 2937 2937 2938 2939 2939 2939 2936 2936 2937 2938 2938 2937 2937 2937 2936 2936 2936 2935 2935 2935 2935 2934 2934 2934 2934 2934
2846 2848 2851 2855 2859 2864 2869 2876 2880 2886 2893 2896 2900 2902 2902 2904 2906 2908 2911 2914 2918 2920 2921 2925 2928 2931 2932 2934 2935 2936 2936 2936 2934 2932 2932 2934 2935 2935 2934 2934 2934 2934 2934 2933 2934 2935 2934 2933 2934 2935 2935 2935 2935 2935
2855 2856 2859 2863 2867 2871 2876 2881 2885 2891 2895 2896 2898 2899 2901 2903 2905 2907 2910 2913 2917 2919 2922 2925 2927 2929 2930 2931 2932 2932 2933 2931 2929 2930 2930 2931 2931 2930 2931 2931 2931 2932 2932 2933 2934 2934 2935 2936 2936 2936 2936 2936 2935 2934
2863 2865 2867 2870 2874 2876 2881 2886 2889 2893 2895 2897 2898 2900 2901 2904 2906 2907 2910 2913 2916 2919 2921 2923 2925 2927 2929 2929 2929 2928 2927 2928 2928 2928 2927 2927 2928 2928 2930 2931 2931 2932 2934 2934 2935 2936 2936 2937 2936 2936 2934 2933 2932 2931
2869 2871 2874 2877 2880 2883 2886 2889 2891 2893 2895 2896 2898 2899 2901 2903 2904 2906 2909 2912 2916 2918 2921 2923 2924 2924 2925 2925 2924 2925 2926 2926 2927 2926 2926 2927 2928 2930 2931 2932 2933 2935 2935 2936 2936 2936 2935 2934 2933 2932 2931 2930 2929 2928
2872 2875 2878 2880 2882 2886 2888 2890 2892 2892 2894 2896 2897 2899 2900 2902 2905 2908 2910 2913 2916 2919 2922 2922 2922 2922 2923 2923 2924 2924 2925 2925 2925 2926 2927 2928 2930 2932 2933 2934 2935 2935 2935 2935 2935 2934 2933 2932 2931 2929 2927 2926 2924 2922
2874 2876 2878 2881 2883 2885 2887 2888 2890 2892 2892 2894 2896 2898 2901 2903 2905 2908 2911 2914 2916 2918 2920 2921 2921 2922 2922 2923 2923 2924 2924 2925 2927 2928 2930 2931 2932 2933 2934 2935 2935 2935 2934 2933 2932 2931 2930 2929 2926 2924 2922 2919 2918 2915
2874 2876 2879 2881 2883 2884 2886 2887 2889 2890 2891 2894 2897 2900 2902 2904 2907 2909 2911 2913 2916 2917 2919 2920 2921 2921 2921 2922 2923 2924 2926 2927 2929 2931 2932 2933 2934 2934 2934 2933 2933 2933 2932 2931 2929 2927 2925 2923 2922 2920 2917 2915 2913 2910
2875 2877 2879 2881 2882 2883 2885 2886 2888 2890 2893 2895 2898 2901 2903 2905 2907 2910 2912 2914 2914 2916 2917 2918 2919 2921 2922 2924 2926 2927 2928 2929 2930 2932 2932 2933 2933 2933 2932 2932 2931 2929 2928 2926 2924 2923 2920 2917 2915 2913 2911 2909 2907 2905
2877 2879 2880 2881 2882 2883 2886 2885 2887 2889 2892 2895 2898 2901 2903 2905 2907 2910 2911 2912 2913 2915 2917 2919 2921 2923 2925 2926 2928 2929 2930 2931 2932 2932 2932 2932 2931 2931 2930 2929 2927 2926 2924 2921 2919 2917 2914 2912 2909 2907 2905 2903 2901 2899
2878 2880 2881 2881 2881 2881 2884 2885 2887 2889 2891 2895 2898 2900 2904 2906 2907 2908 2909 2911 2914 2916 2918 2920 2922 2925 2927 2928 2929 2930 2931 2931 2931 2931 2931 2930 2929 2928 2927 2925 2923 2920 2918 2916 2914 2911 2909 2906 2905 2902 2900 2898 2896 2894
2881 2881 2882 2881 2881 2882 2884 2886 2888 2889 2891 2895 2898 2900 2903 2905 2907 2908 2910 2913 2915 2917 2920 2922 2924 2926 2928 2929 2929 2930 2930 2931 2930 2929 2928 2927 2926 2924 2923 2921 2919 2916 2914 2911 2909 2907 2904 2902 2900 2898 2897 2895 2893 2891
2879 2880 2881 2880 2882 2884 2886 2888 2889 2890 2894 2897 2899 2902 2904 2906 2908 2911 2913 2915 2917 2920 2922 2924 2925 2927 2928 2929 2929 2929 2929 2929 2927 2926 2925 2923 2922 2919 2917 2916 2915 2912 2909 2906 2904 2902 2901 2898 2897 2894 2892 2890 2888 2886
2879 2879 2880 2881 2883 2885 2888 2890 2892 2894 2896 2897 2899 2903 2905 2906 2908 2910 2913 2915 2918 2921 2923 2925 2927 2927 2928 2928 2928 2927 2926 2925 2925 2924 2922 2920 2918 2916 2914 2912 2909 2907 2904 2902 2900 2898 2896 2894 2892 2890 2888 2885 2884 2882
2878 2879 2880 2883 2884 2887 2888 2892 2894 2896 2897 2899 2902 2903 2904 2905 2906 2909 2912 2916 2919 2922 2924 2925 2925 2926 2926 2926 2925 2924 2923 2922 2921 2920 2918 2917 2915 2912 2910 2908 2905 2903 2900 2898 2896 2894 2892 2890 2888 2886 2883 2881 2879 2877
2877 2878 2880 2882 2885 2888 2891 2894 2895 2897 2899 2901 2903 2904 2905 2906 2908 2911 2915 2917 2920 2921 2923 2924 2925 2925 2925 2924 2923 2922 2921 2920 2918 2917 2916 2914 2912 2910 2907 2904 2902 2899 2897 2895 2893 2890 2888 2886 2884 2882 2879 2877 2875 2872
2875 2877 2879 2882 2886 2889 2892 2894 2896 2897 2900 2903 2904 2904 2905 2906 2908 2911 2914 2918 2920 2921 2922 2923 2923 2923 2922 2921 2920 2919 2917 2916 2914 2913 2911 2909 2907 2905 2903 2900 2898 2896 2893 2891 2889 2887 2884 2882 2880 2877 2875 2873 2870 2867
2874 2877 2880 2883 2885 2890 2892 2895 2896 2899 2902 2903 2904 2905 2907 2908 2911 2914 2916 2917 2919 2920 2921 2921 2921 2921 2920 2919 2917 2916 2915 2913 2911 2910 2908 2906 2903 2901 2899 2897 2894 2892 2890 2888 2885 2883 2881 2878 2876 2873 2870 2868 2865 2862
2876 2879 2882 2884 2887 2890 2893 2895 2897 2900 2901 2903 2905 2907 2909 2911 2913 2915 2917 2918 2919 2920 2920 2919 2918 2918 2917 2915 2914 2913 2912 2910 2908 2907 2904 2902 2900 2898 2896 2894 2891 2889 2887 2884 2882 2879 2877 2874 2871 2869 2866 2863 2859 2856
2879 2882 2885 2887 2889 2891 2894 2897 2899 2901 2903 2905 2907 2909 2911 2913 2914 2916 2916 2917 2918 2918 2917 2917 2916 2915 2914 2912 2911 2910 2909 2907 2905 2903 2901 2899 2897 2895 2892 2890 2888 2886 2883 2880 2878 2875 2873 2870 2867 2864 2861 2858 2854 2851